Location: Unspecified
(45.4615°N, 74.0512°W)
Time: 15:46:00
(UTC-04:00)

Cosmos 1674 - Visible Passes

Search period start: 27 May 2018 00:00
Search period end: 06 June 2018 00:00
Orbit: 497 x 521 km, 82.5° (Epoch: 27 May)

Date Brightness Start Highest point End Pass type
(mag) Time Alt. Az. Time Alt. Az. Time Alt. Az.
27 May 5.0 00:34:52 14° E 00:34:52 14° E 00:36:42 10° NE visible
27 May 3.4 02:09:44 39° W 02:09:48 39° WNW 02:13:21 10° N visible
28 May 5.2 00:17:49 11° E 00:17:49 11° E 00:18:49 10° ENE visible
28 May 3.0 01:52:41 51° WNW 01:52:41 51° WNW 01:56:19 10° N visible
29 May 2.7 01:35:37 66° WNW 01:35:37 66° WNW 01:39:13 10° N visible
30 May 2.6 01:18:33 79° N 01:18:33 79° N 01:22:06 10° N visible
31 May 2.8 01:01:27 67° ENE 01:01:27 67° ENE 01:04:57 10° NNE visible
01 Jun 3.1 00:44:21 52° ENE 00:44:21 52° ENE 00:47:45 10° NNE visible
01 Jun 5.1 02:19:13 11° W 02:20:01 12° WNW 02:21:29 10° NW visible
02 Jun 3.5 00:27:15 40° E 00:27:15 40° E 00:30:31 10° NNE visible
02 Jun 4.9 02:02:06 14° W 02:02:46 15° WNW 02:04:59 10° NNW visible
03 Jun 3.8 00:10:07 31° E 00:10:07 31° E 00:13:14 10° NNE visible
03 Jun 4.6 01:44:59 18° W 01:45:31 18° WNW 01:48:14 10° NNW visible
03 Jun 4.1 23:52:59 25° E 23:52:59 25° E 23:55:54 10° NE visible
04 Jun 4.3 01:27:50 22° W 01:28:18 23° WNW 01:31:22 10° NNW visible
04 Jun 4.4 23:35:50 20° E 23:35:50 20° E 23:38:29 10° NE visible
05 Jun 4.0 01:10:41 28° W 01:11:05 29° WNW 01:14:26 10° NNW visible
05 Jun 4.7 23:18:40 16° E 23:18:40 16° E 23:20:58 10° NE visible
